www.pogodaiklimat.ru

Погода и климат >> Архив погоды >> Россия >> Бурятия >> Багдарин


АРХИВ ПОГОДЫ в Багдарине

Время (UTC), дата Ветер
(напр.,м/с)
 
Видим.   Явления Облачность Т
(С)
Тd
(С)
f
(%)
Тe
(С)
Тes
(С)
Комфортность P
(гПа)
Po
(гПа)
Тmin
(С)
Tmax
(С)
R
(мм)
R24
(мм)
S
(см)
00 15.07 ЮВ 1 20 км ясно +12.0 +7.3 73 +12 +19 1009.2 907.1 +3.1
03 15.07 Ю 1 20 км 4/3 1000 м
[Cu med, cong Ci fib]
+20.8 +7.8 43 +23 +34 комфорт 1005.1 906.3
06 15.07 Ю 2 20 км 8/3 1000 м
[Cu med, cong Ci fib]
+24.2 +7.8 35 +25 +33 комфорт 1003.3 905.7
09 15.07 В 2 20 км 5/3 1000 м
[Cu med, cong Ci fib]
+24.8 +7.9 34 +25 +29 комфорт 1003.0 905.7
12 15.07 В 1 20 км 4/0
[Ci fib]
+21.4 +11.5 53 +23 +23 комфорт 1004.8 906.3 +25.6
15 15.07 СЗ 1 н/о 3/0
[Ci fib]
+13.6 +9.2 75 +14 +14 1009.8 908.3
18 15.07 штиль 0 н/о 6/0
[Ci fib]
+9.0 +7.8 92 +8 +8 1012.5 909.1
21 15.07 штиль 0 20 км ясно +6.6 +5.6 93 +6 +6 1013.5 909.1
00 16.07 штиль 0 20 км 4/0
[Ci fib]
+15.7 +9.8 68 +16 +23 1010.5 909.5 +6.5
03 16.07 ЮВ 2 20 км дым 4/1 1000 м
[Cu med, cong Ci fib]
+23.9 +10.9 44 +25 +37 комфорт 1006.9 909.0
06 16.07 ЮВ 2 20 км дым 4/3 1000 м
[Cu med, cong Ci fib]
+26.6 +9.5 34 +27 +36 жарко 1004.5 907.6
09 16.07 В 2 20 км 6/1 1000 м
[Cu med, cong Ci fib]
+27.5 +8.9 31 +28 +32 жарко 1003.1 906.6
12 16.07 штиль 0 20 км 4/0
[Ci fib]
+22.1 +14.0 60 +25 +25 комфорт 1004.8 906.7 +28.1
15 16.07 штиль 0 н/о 8/0
[Ci fib]
+13.8 +10.7 82 +13 +13 1009.2 907.8
18 16.07 штиль 0 н/о 3/0
[Ci fib]
+9.7 +8.4 92 +9 +9 1011.2 908.1
21 16.07 штиль 0 20 км 3/0
[Ci fib]
+7.7 +6.8 94 +7 +7 1012.4 908.5
00 17.07 штиль 0 20 км 3/0
[Ci fib]
+18.0 +11.5 66 +18 +25 1008.7 908.7 +7.7
03 17.07 ЮВ 1 20 км 8/4 1000 м
[Cu med, cong Ci fib]
+26.9 +12.1 40 +28 +37 жарко 1004.2 907.5
06 17.07 Ю 1 20 км 8/5 1000 м
[Cu med, cong Ci fib]
+29.3 +8.4 27 +29 +36 жарко 1001.7 905.8
09 17.07 Ю 3 20 км 8/5 1000 м
[Cb cap Ac trans Ci fib]
+29.3 +9.7 30 +29 +31 жарко 1001.0 905.2
12 17.07 ЮЗ 1 20 км 8/1 1000 м
[Sc diur, vesp Ci fib]
+22.4 +15.6 65 +26 +26 жарко 1003.0 905.2 +30.3
15 17.07 ЮЗ 1 н/о 4/0
[Ci fib]
+14.4 +11.3 82 +15 +15 1007.5 906.5
18 17.07 СЗ 1 н/о 8/0
[Ci fib]
+11.2 +9.4 89 +11 +11 1008.4 906.2
21 17.07 штиль 0 20 км 10/0
[Ac lent Ci fib]
+9.6 +8.4 92 +9 +9 1009.2 906.3
00 18.07 ЮВ 1 20 км 10/0
[Ci fib]
+18.0 +12.2 69 +19 +24 1005.0 905.5 +9.6
03 18.07 ЮЗ 2 20 км 9/3 1000 м
[Cu med, cong Ac lent Ci fib]
+27.2 +12.9 41 +29 +34 жарко 1000.2 903.9
06 18.07 СЗ 4 20 км гроза без осадков 10/8 1000 м
[Cb cap]
+22.2 +11.3 50 +24 +25 комфорт 1000.6 902.7
09 18.07 штиль 0 20 км гроза, ливневой дождь 10/9 1000 м
[Cb cap Ci fib]
+17.9 +16.6 92 1001.5 902.4
12 18.07 штиль 0 20 км гроза, пыльная буря 10/6 1000 м
[Cb cap Ac trans Ci fib]
+19.0 +17.0 88 +20 +20 1001.1 902.8 +31.0 2
15 18.07 штиль 0 н/о 6/4 1000 м
[Sc diur, vesp Ac trans Ci fib]
+13.4 +12.8 96 +13 +13 1003.8 902.8
18 18.07 штиль 0 н/о 4/0
[Ci fib]
+10.2 +9.4 95 +9 +9 1004.5 902.3
21 18.07 штиль 0 10 км туман местами 3/0
[Ci fib]
+8.4 +7.6 95 +7 +8 1004.9 902.0
00 19.07 Ю 1 20 км 10/0
[Ac trans Ci fib]
+13.0 +10.5 85 +13 +17 1003.4 902.3 +7.9
03 19.07 ЮВ 2 6000 м мгла 10/0
[Ac trans Ci fib]
+23.4 +13.3 53 +27 +36 душно 998.3 901.2
06 19.07 ЮВ 1 10 км мгла 10/3 1000 м
[Cu med, cong Ci fib]
+26.2 +12.1 41 +28 +37 жарко 996.1 899.9
09 19.07 ЮВ 2 10 км мгла 10/3 1000 м
[Sc Ac As]
+25.0 +12.5 46 +27 +28 жарко 996.0 899.6
12 19.07 СЗ 1 4000 м гроза, ливневой дождь 10/10 1000 м
[Cb cap]
+16.7 +14.3 86 +18 +18 1000.6 901.2 +26.4 1
15 19.07 С 2 н/о слаб. ливневой дождь {гроза} 10/10 1000 м
[Cb cap]
+16.0 +14.5 91 +16 +16 1001.4 901.6
18 19.07 С 3 н/о ливневой дождь {гроза} 10/10 1000 м
[Cb cap]
+15.1 +12.6 85 +14 +14 1001.5 901.4
21 19.07 С 2 7000 м мгла 10/8 1000 м
[Cb cap Ac und]
+14.1 +11.5 84 +14 +14 1002.5 901.9
00 20.07 С 2 5000 м мгла 10/8 1000 м
[Cb cap Ac und]
+13.9 +10.1 78 +13 +14 1003.3 902.5 +13.9 6
03 20.07 С 3 6000 м мгла 10/8 1000 м
[Cb cap Ac As]
+13.7 +9.4 75 +13 +13 1004.4 903.4 +13.7
06 20.07 С 2 6000 м мгла 10/6 1000 м
[Sc diur, vesp Ac As]
+13.7 +8.7 72 +13 +15 1005.0 903.9
09 20.07 С 2 10 км в посл. час ливневой дождь 10/6 1000 м
[Cb cap As op]
+13.6 +9.4 76 +13 +13 1005.2 904.1
12 20.07 СВ 2 20 км {ливн. осадки} 10/8 1000 м
[Cb cap As op]
+14.3 +9.5 73 +14 +14 1006.3 905.3 +14.5 0.3
15 20.07 СВ 2 н/о 10/8 600 м
[Cb cap Ac trans]
+14.0 +9.0 72 +14 +14 1007.1 905.9
18 20.07 СЗ 1 н/о 10/6 600 м
[Cb cap As trans]
+13.3 +9.2 76 +14 +14 1006.9 905.5
21 20.07 штиль 0 10 км слаб. ливневой дождь 10/8 600 м
[Cb cap Ac trans]
+13.1 +9.5 79 +13 +13 1006.6 905.2
00 21.07 штиль 0 10 км слаб. дождь 10/8 600 м
[Sc Ac As]
+13.2 +11.1 87 +13 +13 1006.7 905.4 +11.8 0.8
03 21.07 С 2 10 км слаб. дождь 10/10 300 м
[Frnb Ns]
+15.2 +11.9 81 +15 +15 1005.5 905.0
06 21.07 С 2 10 км слаб. дождь 10/10 300 м
[Frnb Ns]
+16.3 +13.5 83 +16 +16 1004.9 904.9
09 21.07 В 1 7000 м слаб. дождь 10/10 300 м
[Frnb Ns]
+15.5 +13.7 89 +16 +16 1005.6 905.3
12 21.07 штиль 0 10 км слаб. дождь 10/10 300 м
[Frnb Ns]
+13.7 +11.6 87 +13 +13 1007.8 906.5 +16.6 13
15 21.07 штиль 0 н/о слаб. дождь 10/10 300 м
[Frnb Ns]
+11.9 +10.5 91 +11 +11 1008.7 906.7
18 21.07 штиль 0 н/о {дождь} 10/0
[As op]
+11.1 +10.1 94 +10 +10 1008.2 906.0

 

Местоположение метеостанции Багдарин (Бурятия, Россия): широта 54.43 долгота 113.50 высота над уровнем моря 902 м.

В архиве по умолчанию представлена погода в Багдарине за последнюю неделю. Архивные данные за месяц целиком и за предыдущие месяцы, начиная с января 2011 года, Вы можете получить, выбрав интересующий диапазон дат из раскрывающегося списка и нажав кнопку "Ввод!".


*Определитесь, кто Вы:
робот инопланетянин человек

Внимание! Время в таблицах - всемирное. Для получения местного времени необходимо прибавить поправку, которая равна 8 ч.

Смотрите также архив погоды в соседних городах и на ближайших метеорологических станциях:

Погода в Троицком Прииске (Бурятия, Россия) (31 км)
Погода в Баунте (Бурятия, Россия) (97 км)
Погода в Уаките (Бурятия, Россия) (117 км)
Погода в Усть-Джилинде (Бурятия, Россия) (134 км)
Погода в Романовке (Бурятия, Россия) (147 км)
Погода в Тунгокочене (Забайкальский край, Россия) (170 км)
Погода в Телембе (Бурятия, Россия) (187 км)
Погода в Усть-Каренге (Забайкальский край, Россия) (194 км)
Погода в Курумкане (Бурятия, Россия) (208 км)
Погода в Бургени (Забайкальский край, Россия) (223 км)

Пояснения к столбцам:

Ветер - указаны скорость ветра в м/с - средняя за 10 мин, порывы в срок и между сроками (в фигурных скобках) и направление, откуда дует ветер: С - северный, СВ - северо-восточный, В - восточный, ЮВ - юго-восточный, Ю - южный, ЮЗ - юго-западный, З - западный, СЗ - северо-западный.
Видимость - горизонтальная дальность видимости в метрах или километрах. При видимости от 1 до 10 км при отсутствии осадков обычно наблюдается дымка, при ухудшении видимости до 1 км и менее - туман. В сухую погоду видимость может ухудшаться дымом, пылью или мглою.
Явления - указаны атмосферные явления, наблюдавшиеся в срок или в последний час перед сроком; фигурными скобками обозначены явления, наблюдавшиеся между сроками (за 1-3 часа до срока); квадратными скобками обозначены град или гололедные отложения с указанием их диаметра в мм.
Облачность - указаны через наклонную черту общая и нижняя облачность в баллах и высота нижней границы облаков в метрах; квадратными скобками обозначены формы облаков: Ci - перистые, Cs - перисто-слоистые, Cc - перисто-кучевые, Ac - высококучевые, As - высокослоистые, Sc - слоисто-кучевые, Ns - слоисто-дождевые, Cu - кучевые, Cb - кучево-дождевые. Подробнее классификацию облаков см. в Атласе облаков (PDF).
T - Температура воздуха - температура, измеренная на высоте 2 м над землей.
Td - Температура точки росы - температура, при понижении до которой содержащийся в воздухе водяной пар достигнет насыщения.
f - Относительная влажность воздуха - влажноcть воздуха, измеренная на высоте 2 м над землей.
Te - Эффективная температура - температура, которую ощущает одетый по сезону человек в тени. Характеристика душности погоды. При расчете учитывается влияние влажности воздуха и скорости ветра на теплоощущения человека.
Tes - Эффективная температура на солнце - температура, которую ощущает человек, с поправкой на солнечный нагрев. Характеристика знойности погоды. Зависит от высоты солнца над горизонтом, облачности и скорости ветра. Ночью, в пасмурную погоду, а также при ветре 12 м/с и более поправка равна нулю.
P - Атмосферное давление - приведенное к уровню моря атмосферное давление.
Po - Атмосферное давление - измеренное на уровне метеостанции атмосферное давление.
Tmin - Минимальная температура - минимум температуры воздуха на высоте 2 м над землей.
Tmax - Максимальная температура - максимум температуры воздуха на высоте 2 м над землей.
R - Количество осадков - Количество выпавших осадков за период времени, мм. При наведении курсора мыши на число - период времени, за который выпало указанное количество осадков.
R24 - Количество осадков - Количество выпавших осадков за 24 часа, мм.
S - Снежный покров - Высота снежного покрова, см. При наведении курсора мыши на число - состояние снежного покрова и степень покрытия местности в баллах.